Flag for Cuba Weather past 2 weeks in Holguín, Cuba

Now
75 °F

Fog.


Feels Like: 75 °F
Forecast: 72 / 89 °F
Wind: 7 mph from Southeast

Location: Holguin Civ / Mil

Current Time: Oct 24, 2014 at 3:49:17 AM

Latest Report: Oct 24, 2014 at 2:51 AM


Visibility: 4 mi

Pressure: 29.86 "Hg

Humidity: 83%

Dew point: 70 °F

Location of HolguínLocation

Historic Weather in Holguín — Graph

°F

Holguín temperature yesterday

Maximum temperature yesterday: 84 °F (at 12:56 PM)
Minimum temperature yesterday: 73 °F (at 6:53 AM)
Average temperature yesterday: 78 °F

Past Weeks' High & Low Weather Summary

 TemperatureHumidityPressure
High91 °F (Oct 12, 2:51 PM)94% (Oct 9, 4:52 AM)30.01 "Hg (Oct 9, 4:52 AM)
Low68 °F (Oct 19, 6:02 PM)41% (Oct 12, 2:51 PM)29.80 "Hg (Oct 10, 3:54 PM)
Average78 °F78%29.93 "Hg
* Reported Oct 9 1:50 AM — Oct 24 1:50 AM, Holguín, Weather by CustomWeather, © 2014

Note: Actual official high and low records may vary slightly from our data, if they occured in-between our weather recording intervals... More about our weather records

Advertising

Holguín weather history for previous 24 hours

 ConditionsComfort  
Time TempWeatherWind HumidityBarometerVisibility
1:50 AM
Oct 24
75 °FFog.6 mph89%29.89 "Hg4 mi
12:50 AM75 °FPassing clouds.7 mph89%29.89 "Hg5 mi
11:50 PM
Oct 23
75 °FPassing clouds.5 mph89%29.89 "Hg6 mi
10:50 PM77 °FPassing clouds.6 mph83%29.89 "Hg6 mi
9:50 PM77 °FPartly cloudy.7 mph83%29.89 "Hg6 mi
8:50 PM77 °FMostly cloudy.6 mph83%29.89 "Hg6 mi
7:50 PM79 °FMostly cloudy.1 mph79%29.86 "Hg6 mi
6:50 PM81 °FMore clouds than sun.5 mph74%29.86 "Hg6 mi
5:50 PM81 °FMore clouds than sun.3 mph79%29.83 "Hg6 mi
4:51 PM81 °FMostly cloudy.1 mph74%29.83 "Hg6 mi
3:51 PM81 °FMostly cloudy.2 mph79%29.83 "Hg6 mi
2:54 PM84 °FLight rain. Mostly cloudy.3 mph70%N/A5 mi
1:50 PM84 °FMostly cloudy.6 mph70%29.86 "Hg6 mi
12:56 PM84 °FMore clouds than sun.2 mph70%29.89 "Hg6 mi
11:51 AM82 °FOvercast.3 mph74%29.92 "Hg6 mi
10:51 AM82 °FMore clouds than sun.7 mph74%29.95 "Hg6 mi
9:51 AM79 °FMore clouds than sun.5 mph84%29.92 "Hg6 mi
8:53 AM77 °FMore clouds than sun.6 mph83%29.92 "Hg6 mi
7:53 AM75 °FPassing clouds.5 mph83%29.89 "Hg6 mi
6:53 AM73 °FPassing clouds.6 mph89%29.86 "Hg5 mi
5:51 AM75 °FPassing clouds.7 mph83%29.86 "Hg5 mi
4:51 AM75 °FPassing clouds.7 mph83%29.86 "Hg5 mi
3:51 AM75 °FPassing clouds.7 mph89%29.86 "Hg5 mi
Weather by CustomWeather, © 2014

See weather overviewHow to use our weather pages